Regional Weather Roundup
Issued by NWS

Home | Current Version | Previous Version | Text Only | Print | Product List | Glossary On
Versions: 1 2 3 4 5 6 7 8 9 10 11 12 13 14 15 16 17 18 19 20 21 22 23 24 25 26 27 28 29 30 31 32 33 34 35 36 37 38 39 40 41 42 43 44 45 46 47 48 49 50
000
ASCA44 KEWX 302020
RWRMX

LATIN AMERICA AND CARIBBEAN REGIONAL WEATHER ROUNDUP
NATIONAL WEATHER SERVICE AUSTIN/SAN ANTONIO TX
300 PM CDT TUE JUN 30 2015

NOTE: "FAIR" INDICATED FEW OR NO CLOUDS BELOW 12,000 FEET WITH NO
SIGNIFICANT WEATHER AND/OR OBSTRUCTIONS TO VISIBILITY.

BAJA CALIFORNIA

CITY           SKY/WX    TMP DP  RH WIND       PRES   REMARKS
LORETO         SUNNY     90  70  51 SE6       29.82F HX  95
LA PAZ         MOSUNNY   91  61  35 N12       29.85F HX  91
MEXICALI       CLOUDY    91  59  33 W9        29.86F HX  90
S.J. DEL CABO  MOSUNNY   88  70  55 SE16      29.86F HX  92
TIJUANA        PTSUNNY   81  61  50 NW9       29.95R

NORTHWESTERN MEXICO

CITY           SKY/WX    TMP DP  RH WIND       PRES   REMARKS
CULIACAN       PTSUNNY   97  77  52 NW5       29.84  HX 112
DURANGO        PTSUNNY   72  54  53 N8        30.22
GUAYMAS        MOSUNNY   91  77  62 S12       29.80F HX 105
HERMOSILLO     PTSUNNY   95  68  41 S10       29.89F HX  99
CD. JUAREZ     PTSUNNY   86  57  37 E13       30.06S
LOS MOCHIS     PTSUNNY   91  70  49 S16       29.84F HX  97
OBREGON        PTSUNNY   95  66  38 SW6       29.81F HX  98

NORTHEASTERN MEXICO

CITY           SKY/WX    TMP DP  RH WIND       PRES   REMARKS
CHIHUAHUA      PTSUNNY   79  48  34 N28G36    30.15R
MATAMOROS      PTSUNNY   86  75  70 SE12      30.03F HX  95
MONCLOVA         N/A    N/A N/A N/A MISG        N/A
MONTERREY      PTSUNNY   86  66  51 E18       29.95F
NUEVO LAREDO   PTSUNNY   95  66  38 SE7       29.93F HX  98
PIEDRAS NEGRAS PTSUNNY   90  77  66 SE7       29.97  HX 102
REYNOSA        PTSUNNY   79  70  73 SE9       30.00F
SALTILLO       PTSUNNY   81  63  54 N9        30.15F
TORREON        PTSUNNY   88  59  37 N14       30.04F
CD. VICTORIA   PTSUNNY   79  64  61 S12       29.99F

WESTERN MEXICO

CITY           SKY/WX    TMP DP  RH WIND       PRES   REMARKS
AGUASCALIENTES PTSUNNY   68  52  56 SW9       30.21F
COLIMA         PTSUNNY   84  72  65 SW9       29.98F
DEL BAJIO      PTSUNNY   75  59  57 CALM      30.26F
GUADALAJARA    PTSUNNY   81  55  41 CALM      30.13F
MANZANILLO     MOSUNNY   90  77  66 SW12      29.81F HX 102
MAZATLAN       MOSUNNY   90  73  58 SW17      29.82F HX  98
P. VALLARTA    MOSUNNY   90  79  70 SW10      29.84F HX 105
URUAPAN        MOSUNNY   79  61  53 S9        30.18F
ZACATECAS      PTSUNNY   68  55  64 N7        30.25

CENTRAL MEXICO

CITY           SKY/WX    TMP DP  RH WIND       PRES   REMARKS
CUERNAVACA     PTSUNNY   81  63  54 CALM      30.11F
MEXICO CITY    PTSUNNY   73  50  43 E3        30.27F
MORELIA        MOSUNNY   75  57  53 SW7       30.19F
POZA RICA      CLOUDY    86  73  66 CALM      29.95F HX  93
PUEBLA         PTSUNNY   70  52  52 SW7       30.30F
QUERETARO      CLOUDY    72  55  56 NW6       30.26F
S. LUIS POTOSI CLOUDY    70  54  56 NE5       30.19F
TAMPICO        LGT RAIN  77  73  88 N8        29.96F
TOLUCA         PTSUNNY   64  50  59 SW6       30.37F

SOUTHERN MEXICO

CITY           SKY/WX    TMP DP  RH WIND       PRES   REMARKS
ACAPULCO       MOSUNNY   90  77  66 S7        29.82S HX 102
B. DE HUATULCO CLOUDY    88  75  66 S8        29.91F HX  97
OAXACA         PTSUNNY   77  55  47 SE5       30.15F
P. ESCONDIDO   PTSUNNY   88  77  70 SW7       29.93F HX 100
VERACRUZ       PTSUNNY   88  75  66 NE10      29.89F HX  97
ZIHUATANEJO    MOSUNNY   93  77  59 SW12      29.82F HX 107

YUCATAN PENINSULA

CITY           SKY/WX    TMP DP  RH WIND       PRES   REMARKS
CAMPECHE       PTSUNNY   95  70  43 SE12G23   29.90F HX 101
CANCUN         PTSUNNY   88  79  74 E10       30.06S HX 102
CHETUMAL       CLOUDY    86  75  70 SE13G29   30.01S HX  95
CD. DEL CARMEN MOSUNNY   93  72  49 SE16      29.90F HX 100
COZUMEL        PTSUNNY   84  77  79 SE6       30.05F HX  94
MERIDA         CLOUDY    95  68  41 SE21      29.98F HX  99
MINATITLAN     CLOUDY    86  68  54 N12       29.83F
TAPACHULA      MOSUNNY   91  75  59 SW17      29.84F HX 102
TUX. GUTIERREZ MOSUNNY   86  68  54 SE5       29.93F
VILLAHERMOSA   MOSUNNY   93  73  52 E18       29.88F HX 102

CENTRAL AMERICA

CITY           SKY/WX    TMP DP  RH WIND       PRES   REMARKS
BELIZE CITY    MOSUNNY   88  79  74 E10       29.99F HX 102
MANAGUA        PTCLDY    93  66  40 E28       29.83S HX  96

CARIBBEAN

CITY           SKY/WX    TMP DP  RH WIND       PRES   REMARKS
ARUBA          MOSUNNY   84  77  79 E17       29.92S HX  94
CURACAO        MOSUNNY   88  72  58 E16       29.94F HX  94
KINGSTON       MOSUNNY   86  77  74 SE29      29.94S HX  97
NASSAU         PTSUNNY   88  75  66 S12       30.14F HX  97
SAN JUAN       PTSUNNY   82  75  78 E13       30.08F
SANTO DOMINGO  PTSUNNY   84  70  61 SE12      30.03R
ST. CROIX      MOSUNNY   88  72  58 E17       30.07S HX  94
ST. KITTS      MOSUNNY   82  75  78 E13       30.06S
ST. MAARTEN    LGT RAIN  81  75  83 E16       30.06S
ST. THOMAS     CLOUDY    84  72  65 E13       30.07S

$$




USA.gov is the U.S. government's official web portal to all federal, state and local government web resources and services.